Tallulah, LA

8:14 PM CST on February 24, 2017 (GMT -0600)
Vicksburg Tallulah Regional

Weather History for KTVR - December, 2014

Change the Weather History Date:

Saturday, December 13, 2014

  Actual Average Record
Temperature  
Mean Temperature 55 °F 48 °F  
Max Temperature 68 °F 59 °F 80 °F (2015)
Min Temperature 42 °F 38 °F 7 °F (1962)
Degree Days  
Heating Degree Days 10 17  
Month to date heating degree days 176 205  
Since 1 July heating degree days 714 607  
Cooling Degree Days 0 0  
Month to date cooling degree days 4 0  
Year to date cooling degree days 2193 2225  
Growing Degree Days 6 (Base 50)    
Moisture  
Dew Point 46 °F    
Average Humidity 75    
Maximum Humidity 100    
Minimum Humidity 49    
Precipitation  
Precipitation 0.00 in 0.19 in 3.00 in (1956)
Month to date precipitation 0.54 2.58  
Year to date precipitation 54.45 51.71  
Sea Level Pressure  
Sea Level Pressure 30.28 in    
Wind  
Wind Speed 1 mph (ENE)    
Max Wind Speed 7 mph    
Max Gust Speed 8 mph    
Visibility 9 miles    
Events      
T = Trace of Precipitation, MM = Missing Value Source: NWS Daily Summary

Daily Weather History Graph

Daily Weather History Graph

Search for Another Location

Airport or City:

Trip Planner

Search our weather history database for the weather conditions in past years. The results will help you decide how hot, cold, wet, or windy it might be!

Date:

Astronomy

Dec. 13, 2014 Rise Set
Actual Time 6:56 AM CST 4:59 PM CST
Civil Twilight 6:29 AM CST 5:27 PM CST
Nautical Twilight 5:59 AM CST 5:57 PM CST
Astronomical Twilight 5:29 AM CST 6:27 PM CST
Moon 11:43 PM CST (12/13) 11:37 AM CST (12/13)
Length of Visible Light 10h 57m
Length of Day
10h 03m
Waning Gibbous, 57% of the Moon is Illuminated
Dec 13
Waning Gibbous
Dec 14
Last Quarter
Dec 21
New
Dec 28
First Quarter
Jan 4
Full

Hourly Weather History & Observations

Time (CST) Temp. Windchill Dew Point Humidity Pressure Visibility Wind Dir Wind Speed Gust Speed Precip Events Conditions
12:53 AM 46.9 °F - 45.0 °F 93% 30.33 in 10.0 mi Calm Calm - N/A   Overcast
1:53 AM 48.0 °F - 45.0 °F 89% 30.34 in 9.0 mi Calm Calm - N/A   Overcast
2:53 AM 48.0 °F - 45.0 °F 89% 30.34 in 10.0 mi Calm Calm - N/A   Overcast
3:53 AM 48.0 °F - 45.0 °F 89% 30.33 in 10.0 mi Calm Calm - N/A   Overcast
4:53 AM 46.9 °F - 44.1 °F 90% 30.32 in 8.0 mi Calm Calm - N/A   Overcast
5:53 AM 44.1 °F - 43.0 °F 96% 30.33 in 7.0 mi Calm Calm - N/A   Overcast
6:53 AM 45.0 °F 41.8 °F 43.0 °F 93% 30.33 in 7.0 mi East 5.8 mph - N/A   Mostly Cloudy
7:53 AM 48.0 °F - 44.1 °F 86% 30.34 in 9.0 mi NNE 4.6 mph - N/A   Clear
8:53 AM 52.0 °F - 45.0 °F 77% 30.35 in 10.0 mi Calm Calm - N/A   Clear
9:53 AM 55.0 °F - 45.0 °F 69% 30.36 in 10.0 mi Calm Calm - N/A   Overcast
10:53 AM 57.9 °F - 46.0 °F 65% 30.34 in 10.0 mi SSW 3.5 mph - N/A   Overcast
11:53 AM 63.0 °F - 48.9 °F 60% 30.31 in 10.0 mi Variable 3.5 mph - N/A   Clear
12:53 PM 64.9 °F - 50.0 °F 58% 30.27 in 10.0 mi SSE 4.6 mph - N/A   Clear
1:53 PM 66.9 °F - 48.0 °F 51% 30.25 in 10.0 mi Calm Calm - N/A   Clear
2:53 PM 68.0 °F - 48.9 °F 50% 30.23 in 10.0 mi NE 4.6 mph - N/A   Clear
3:53 PM 68.0 °F - 48.0 °F 49% 30.22 in 10.0 mi Calm Calm - N/A   Clear
4:53 PM 61.0 °F - 48.9 °F 64% 30.22 in 10.0 mi North 4.6 mph - N/A   Clear
5:53 PM 55.0 °F - 48.0 °F 77% 30.23 in 10.0 mi Calm Calm - N/A   Clear
6:53 PM 54.0 °F - 46.9 °F 77% 30.22 in 10.0 mi NE 3.5 mph - N/A   Clear
7:53 PM 48.9 °F - 46.0 °F 90% 30.23 in 10.0 mi Calm Calm - N/A   Clear
8:53 PM 48.9 °F - 46.0 °F 90% 30.23 in 10.0 mi Calm Calm - N/A   Clear
9:53 PM 46.0 °F - 44.1 °F 93% 30.23 in 6.0 mi Calm Calm - N/A   Clear
10:53 PM 44.1 °F - 43.0 °F 96% 30.22 in 3.0 mi Calm Calm - N/A   Clear
10:55 PM 43.0 °F - 43.0 °F 100% 30.20 in 1.8 mi Calm Calm - N/A   Clear
11:05 PM 43.0 °F - 41.0 °F 93% 30.20 in 4.0 mi Calm Calm - N/A   Clear
11:53 PM 46.0 °F - 44.1 °F 93% 30.21 in 8.0 mi Calm Calm - N/A   Clear